Location: Unspecified
(40.7945°N, 0.0000°E)
Time: 08:49:53
(UTC+00:00)

Courier 1B - Pass Details

Date: 25 January 2021
Orbit: 962 x 1209 km, 28.3° (Epoch: 06 March)

Event Time Altitude Azimuth Distance (km) Brightness Sun altitude
Rises 21:07:13 0° 206° (SSW) 3,842 - -44.8°
Reaches altitude 10° 21:12:08 10° 176° (S) 2,825 - -45.7°
Maximum altitude 21:14:27 12° 156° (SSE) 2,661 - -46.2°
Drops below altitude 10° 21:16:45 10° 136° (SE) 2,773 - -46.6°
Sets 21:21:26 0° 106° (ESE) 3,679 - -47.4°
